Powrót do katalogu

COSMOS 2251 DEB

AktywnyLEO
NORAD 39553·DEBRIS·🇷🇺 Russia

Wystrzelony Jun 16, 1993 z Plesetsk Cosmodrome

Loading…

Następne Przeloty (najbliższe 24 godziny)

TLE

ŚwieżeSource: Space-Track

Epoka: Sep 14, 2026, 03:11 UTC

1 39553U 93036BUK 26257.13307146  .00001690  00000-0  95440-3 0  9994
2 39553  74.0275 212.5437 0206882 285.0276  72.8045 14.00823002794727

Śledź COSMOS 2251 DEB w czasie rzeczywistym z AllMySat

Download on the App Store